DW6352 Weather Reports


time (UTC)temp
C
wind
direction
speed
KPH
gust
KPH
rain 1hr
cm
rain 24hr
cm
rain mn
cm
humidity
%
barometer
mb
20260505101600 1 277 8.0 19.3 0.00 0.00 0.00 66 1006.9
20260505100057 1 288 11.3 16.1 0.00 0.00 0.00 66 1007.0
20260505094554 1 288 8.0 19.3 0.00 0.00 0.00 66 1006.9
20260505093054 2 293 9.7 22.5 0.00 0.00 0.00 66 1006.8
20260505091548 2 302 11.3 25.7 0.00 0.00 0.00 66 1006.6
20260505090050 2 312 11.3 22.5 0.00 0.00 0.00 66 1006.4
20260505084544 2 303 12.9 22.5 0.00 0.00 0.00 65 1006.2
20260505083041 2 270 14.5 22.5 0.00 0.00 0.00 65 1006.0
20260505081540 2 296 9.7 20.9 0.00 0.00 0.00 65 1005.8
20260505080038 3 267 9.7 19.3 0.00 0.00 0.00 64 1005.8
20260505074533 3 283 9.7 19.3 0.00 0.00 0.00 64 1005.7
20260505073046 3 304 9.7 19.3 0.00 0.00 0.00 63 1005.7
20260505071530 3 288 8.0 22.5 0.00 0.00 0.00 62 1005.6
20260505070028 3 312 8.0 24.1 0.00 0.00 0.00 61 1005.5
20260505064537 3 315 6.4 16.1 0.00 0.00 0.00 60 1005.5
20260505063023 3 244 4.8 14.5 0.00 0.00 0.00 60 1005.3
20260505061530 4 238 6.4 16.1 0.00 0.00 0.00 58 1005.3
20260505060017 4 336 8.0 17.7 0.00 0.00 0.00 58 1005.2
20260505054514 5 280 9.7 19.3 0.00 0.00 0.00 57 1005.1
20260505053011 5 236 8.0 19.3 0.00 0.00 0.00 56 1004.8
20260505051509 5 247 8.0 17.7 0.00 0.00 0.00 55 1004.7
20260505041601 6 302 6.4 17.7 0.00 0.00 0.00 52 1004.6
20260505040057 6 259 8.0 14.5 0.00 0.00 0.00 52 1004.6
20260505034555 6 234 6.4 17.7 0.00 0.00 0.00 51 1004.6
20260505033053 6 268 6.4 19.3 0.00 0.00 0.00 51 1004.4
20260505031606 6 261 4.8 16.1 0.00 0.00 0.00 50 1004.5
20260505030050 6 298 8.0 17.7 0.00 0.00 0.00 50 1004.4
20260505024547 6 290 3.2 11.3 0.00 0.00 0.00 49 1004.3
20260505023051 6 225 6.4 17.7 0.00 0.00 0.00 48 1004.1
20260505021542 7 279 4.8 16.1 0.00 0.00 0.00 48 1003.9
20260505020040 7 298 3.2 11.3 0.00 0.00 0.00 47 1003.7
20260505014539 7 275 6.4 14.5 0.00 0.00 0.00 46 1003.4
20260505013036 7 309 8.0 17.7 0.00 0.00 0.00 45 1003.4
20260505011535 7 277 9.7 25.7 0.00 0.00 0.00 44 1003.2
20260505010032 8 300 11.3 24.1 0.00 0.00 0.00 44 1002.9
20260505004630 8 303 14.5 38.6 0.00 0.00 0.00 42 1002.8
20260505003027 8 301 19.3 38.6 0.00 0.00 0.00 44 1002.8
20260505001525 8 238 22.5 38.6 0.00 0.00 0.00 44 1002.6
20260505000035 8 297 20.9 38.6 0.00 0.00 0.00 44 1002.4
20260504234519 9 310 19.3 33.8 0.00 0.00 0.00 42 1002.1
20260504233016 10 294 22.5 45.1 0.00 0.00 0.00 40 1002.0
20260504231513 10 313 22.5 45.1 0.00 0.00 0.00 38 1001.7
20260504230012 10 306 19.3 38.6 0.00 0.00 0.00 39 1001.6
20260504224510 10 297 22.5 43.5 0.00 0.00 0.00 37 1001.4
20260504223007 11 300 29.0 45.1 0.00 0.00 0.00 37 1001.2
20260504221508 11 308 24.1 45.1 0.00 0.00 0.00 37 1000.9
20260504220001 11 302 17.7 46.7 0.00 0.00 0.00 41 1000.6
20260504214600 11 293 25.7 46.7 0.00 0.00 0.00 37 1000.4
20260504213102 12 306 16.1 43.5 0.00 0.00 0.00 39 1000.2
20260504211553 11 286 25.7 41.8 0.00 0.00 0.00 38 1000.0
20260504210055 12 259 14.5 40.2 0.00 0.00 0.00 41 1000.0
20260504204555 11 315 17.7 45.1 0.00 0.00 0.00 40 999.9
20260504203101 12 311 29.0 46.7 0.00 0.00 0.00 39 999.9
20260504201550 12 279 17.7 35.4 0.00 0.00 0.00 42 999.8
20260504200048 12 308 19.3 51.5 0.00 0.00 0.00 40 999.6
20260504194548 12 293 22.5 54.7 0.00 0.00 0.00 41 999.2
20260504193045 12 284 24.1 40.2 0.00 0.00 0.00 44 999.0
20260504191543 13 299 20.9 41.8 0.00 0.00 0.00 41 998.7
20260504190042 13 259 20.9 41.8 0.00 0.00 0.00 42 998.5
20260504184541 12 275 17.7 43.5 0.00 0.00 0.00 42 998.5
20260504183039 12 334 19.3 40.2 0.00 0.00 0.00 43 998.2
20260504181538 12 306 20.9 38.6 0.00 0.00 0.00 44 997.9
20260504180037 12 292 22.5 45.1 0.00 0.00 0.00 45 997.9
20260504174536 13 286 22.5 40.2 0.00 0.00 0.00 46 997.4
20260504173037 13 310 11.3 35.4 0.00 0.00 0.00 48 997.2
20260504171534 13 307 20.9 41.8 0.00 0.00 0.00 46 997.0